Regional Weather Roundup
Issued by NWS Northern Indiana

Home | Current Version | Previous Version | Text Only | Print | Product List | Glossary Off
Versions: 1 2 3 4 5 6 7 8 9 10 11 12 13 14 15 16 17 18 19 20 21 22 23 24 25 26 27 28 29 30 31 32 33 34 35 36 37 38 39 40 41 42 43 44 45 46 47 48 49 50

000
ASUS43 KIWX 240400
RWRIWX

KIWX WEATHER ROUNDUP
NATIONAL WEATHER SERVICE NORTHERN INDIANA
1200 AM EDT THU JUL 24 2014

NOTE: "FAIR" INDICATES FEW OR NO CLOUDS BELOW 12,000 FEET WITH NO
SIGNIFICANT WEATHER AND/OR OBSTRUCTIONS TO VISIBILITY.

* THESE STATIONS ARE NOT UNDER NWS QUALITY CONTROL. THEY ALSO MAY NOT
  REPORT WEATHER SUCH AS PRECIPITATION OR FOG.

INZ001>027-240500-
NORTHERN INDIANA

CITY           SKY/WX    TMP DP  RH WIND       PRES   REMARKS
VALPARAISO     CLEAR     57  53  86 CALM      30.11S
SOUTH BEND     CLEAR     59  54  83 N6        30.11R
GOSHEN         CLEAR     62  57  83 N7        30.09S
ANGOLA*        CLEAR     64  55  72 NE6       30.08F
FORT WAYNE     MOCLDY    64  57  78 N3        30.07S
PERU/GRISSOM   CLEAR     61  58  92 N6        30.07F

$$
INZ028>050-240500-
CENTRAL INDIANA

CITY           SKY/WX    TMP DP  RH WIND       PRES   REMARKS
LAFAYETTE      CLEAR     59  50  72 N8        30.09F
KOKOMO*        CLEAR     61  54  77 N8        30.07F
MUNCIE*        PTCLDY    65  59  81 NE5       30.06S
INDIANAPOLIS   CLEAR     63  57  81 N13       30.05S

$$
MIZ043>046-050>051-056>058-064>065-071>073-077>080-240500-
SOUTHWEST LOWER MICHIGAN

CITY           SKY/WX    TMP DP  RH WIND       PRES   REMARKS
BATTLE CREEK   CLEAR     62  53  72 NE3       30.11S
BENTON HARBOR  CLEAR     60  56  86 NE5       30.11R
COLDWATER*     CLEAR     64  56  77 NE9       30.10S
HILLSDALE*     PTCLDY    65  58  78 CALM      30.09S
HOLLAND        CLEAR     64  54  69 VRB5      30.13S
GRAND RAPIDS   PTCLDY    61  54  77 N7        30.12S
KALAMAZOO      CLEAR     61  53  75 N5        30.11S
STURGIS*       CLEAR     61  57  88 N6        30.10R
THREE RIVERS*  FAIR      63  57  82 N3        30.11S

$$
OHZ001>008-015>018-024>025-240500-
NORTHWEST OHIO

CITY           SKY/WX    TMP DP  RH WIND       PRES   REMARKS
DEFIANCE       PTCLDY    63  59  87 CALM      30.07S
FINDLAY        CLEAR     61  58  90 CALM      30.06S
TOLEDO EXPRESS MOCLDY    60  58  92 CALM      30.08R
TOLEDO METCALF CLEAR     64  57  78 NE3       30.08S
LIMA           CLEAR     61  58  90 E3        30.07S

$$
&&


USA.gov is the U.S. government's official web portal to all federal, state and local government web resources and services.